Regional Weather Roundup
Issued by NWS

Home | Current Version | Previous Version | Text Only | Print | Product List | Glossary Off
Versions: 1 2 3 4 5 6 7 8 9 10 11 12 13 14 15 16 17 18 19 20 21 22 23 24 25 26 27 28 29 30 31 32 33 34 35 36 37 38 39 40 41 42 43 44 45 46 47 48 49 50

000
ASUS45 KSLC 241510
RWRUT

UTAH REGIONAL WEATHER ROUNDUP
NATIONAL WEATHER SERVICE SALT LAKE CITY UT
800 AM MST SAT JAN 24 2015

UTZ001>011-023>025-241600-

NORTHERN UTAH

CITY           SKY/WX    TMP DP  RH WIND       PRES   REMARKS
BRIGHAM CITY   MOCLDY    25  22  89 NW5       30.54R WCI  19
HILL AFB       PTCLDY    25  16  67 E15       30.47S WCI  13
LOGAN          CLEAR     21  18  88 N3        30.52R
OGDEN          MOCLDY    25  18  74 S9        30.48R WCI  15
PROVO AIRPORT  MOCLDY    19  16  86 CALM      30.50R
SALT LAKE CITY MOCLDY    27  19  72 SE7       30.50R WCI  19
VERNAL         CLOUDY    19  13  77 NW5       30.43S WCI  12
WENDOVER       CLOUDY    23  18  80 CALM      30.49R
HEBER CITY     PTCLDY    10   7  85 CALM      30.48R
WEST JORDAN    CLEAR     25  19  80 S7        30.49R WCI  17

$$

UTZ012>022-026-027-241600-

SOUTHERN/CENTRAL UTAH

CITY           SKY/WX    TMP DP  RH WIND       PRES   REMARKS
BLANDING       CLEAR     21  16  78 NW7       30.44S WCI  13
BRYCE CANYON   CLEAR     12   8  84 W9        30.42S WCI   0
CEDAR CITY     CLEAR     19  14  81 S3        30.44F
DELTA          PTCLDY    17  16  93 SW6       30.47S WCI   9
MILFORD        CLEAR     20  16  84 S5        30.46F WCI  13
MOAB/CYNLANDS  CLEAR     21  16  81 CALM      30.41R
PRICE          PTCLDY    21  13  71 NE3       30.38R
ST GEORGE      MOSUNNY   36  18  48 CALM      30.43R
KANAB          CLEAR     30  18  59 NE3       30.43R

$$

REGIONAL REPORTS     COLORADO/ARIZONA

CITY           SKY/WX    TMP DP  RH WIND       PRES   REMARKS
CRAIG, CO      CLOUDY     4   0  83 W5        30.41F WCI  -5
GRAND JUNCTION MOCLDY    22  13  68 SE9       30.42S WCI  12
RIFLE          MOCLDY    16  10  77 SE5       30.44F WCI   9
MONTROSE       PTCLDY    19   9  65 CALM      30.46R
CORTEZ         CLEAR     16  12  84 N3        30.36F
PAGE, AZ       NOT AVBL
GRAND CANYON   PTCLDY    34   8  33 NE16      30.35R WCI  24
KINGMAN        CLEAR     35  16  45 N9        30.30R WCI  28
FLAGSTAFF      CLEAR     30   6  36 E10       30.33R WCI  21

$$

REGIONAL REPORTS    NEVADA/IDAHO/WYOMING

CITY           SKY/WX    TMP DP  RH WIND       PRES   REMARKS
LAS VEGAS, NV  CLEAR     49  23  36 SE9       30.32R
ELY            CLEAR     15  13  91 S10       30.45F WCI   2
ELKO           CLEAR     20  17  88 CALM      30.51R
POCATELLO, ID  CLOUDY    26  26 100 NE7       30.48F FOG     WCI  18
BURLEY         FOG       29  27  92 NE3       30.46S VSB 3/4
EVANSTON, WY   CLOUDY    18  14  84 SW10      30.40R WCI   6
ROCK SPRINGS   CLOUDY    25  16  68 W24       30.29F WCI   9

$$



USA.gov is the U.S. government's official web portal to all federal, state and local government web resources and services.